Location: Newark
(34.0131°N, 4.3314°W)
Time: 21:28:15
(UTC+00:00)

Vanguard 2 Rocket - All Passes

Search period start: 20 October 2019 00:00
Search period end: 30 October 2019 00:00
Orbit: 553 x 3327 km, 32.9° (Epoch: 20 October)

Date Brightness Start Highest point End Pass type
(mag) Time Alt. Az. Time Alt. Az. Time Alt. Az.
20 Oct - 05:49:06 10° S 05:58:49 21° SE 06:10:50 10° E visible
20 Oct - 07:58:00 10° SW 08:13:47 54° SSE 08:33:07 10° ENE daylight
20 Oct - 10:12:33 10° WSW 10:31:59 82° SSE 10:50:50 10° E daylight
20 Oct - 12:30:31 10° W 12:51:17 85° S 13:06:32 10° ESE daylight
20 Oct - 14:50:13 10° WNW 15:08:24 58° SSW 15:19:45 10° SE daylight
20 Oct - 17:12:32 10° W 17:21:44 20° SW 17:28:29 10° S daylight
21 Oct - 04:55:42 10° SE 04:58:43 11° SE 05:01:58 10° ESE visible
21 Oct - 06:58:48 10° SSW 07:12:27 42° SE 07:30:26 10° E daylight
21 Oct - 09:11:37 10° WSW 09:29:29 75° SSE 09:49:23 10° E daylight
21 Oct - 11:28:20 10° W 11:48:50 87° S 12:06:04 10° E daylight
21 Oct - 13:47:19 10° W 14:07:13 70° SSW 14:20:29 10° ESE daylight
21 Oct - 16:08:08 10° W 16:22:04 32° SW 16:31:21 10° SSE daylight
22 Oct - 06:00:28 10° S 06:11:44 30° SE 06:26:53 10° E visible
22 Oct - 08:11:22 10° SW 08:27:20 65° SSE 08:47:25 10° ENE daylight
22 Oct - 10:26:40 10° W 10:46:09 86° S 11:05:05 10° E daylight
22 Oct - 12:44:45 10° W 13:05:24 79° SSW 13:20:39 10° ESE daylight
22 Oct - 15:04:35 10° WNW 15:21:49 46° SW 15:33:06 10° SSE daylight
22 Oct - 17:30:45 10° WSW 17:34:37 12° SW 17:38:02 10° SW daylight
23 Oct - 05:03:27 10° SSE 05:11:35 19° SE 05:21:59 10° E visible
23 Oct - 07:11:48 10° SW 07:25:44 54° SSE 07:44:56 10° ENE daylight
23 Oct - 09:25:36 10° WSW 09:43:30 82° SSE 10:03:37 10° E daylight
23 Oct - 11:42:35 10° W 12:03:03 85° S 12:20:17 10° ESE daylight
23 Oct - 14:01:33 10° WNW 14:20:54 59° SSW 14:34:09 10° SE daylight
23 Oct - 16:23:39 10° W 16:35:01 22° SW 16:43:23 10° S daylight
24 Oct - 06:12:55 10° SSW 06:24:46 41° SE 06:41:53 10° E daylight
24 Oct - 08:25:07 10° WSW 08:41:08 75° SSE 09:01:38 10° E daylight
24 Oct - 10:40:54 10° W 11:00:23 87° S 11:19:21 10° E daylight
24 Oct - 12:58:58 10° W 13:19:18 70° SSW 13:34:35 10° ESE daylight
24 Oct - 15:19:18 10° W 15:34:58 34° SW 15:45:55 10° SSE daylight
25 Oct - 05:14:53 10° S 05:24:28 28° SE 05:38:06 10° E visible
25 Oct - 07:25:16 10° SW 07:39:16 65° SSE 07:59:13 10° ENE daylight
25 Oct - 09:39:45 10° W 09:57:40 86° S 10:17:51 10° E daylight
25 Oct - 11:56:50 10° W 12:17:09 79° SSW 12:34:22 10° ESE daylight
25 Oct - 14:15:55 10° WNW 14:34:18 47° SW 14:47:25 10° SSE daylight
25 Oct - 16:41:10 10° W 16:47:52 14° SW 16:53:33 10° SSW daylight
26 Oct - 04:18:16 10° SSE 04:24:42 17° SE 04:32:59 10° E visible
26 Oct - 06:26:01 10° SW 06:38:03 53° SSE 06:56:22 10° ENE daylight
26 Oct - 08:39:09 10° WSW 08:55:09 83° SSE 09:15:51 10° E daylight
26 Oct - 10:55:10 10° W 11:14:36 84° S 11:33:33 10° ESE daylight
26 Oct - 13:13:12 10° WNW 13:32:58 59° SSW 13:48:10 10° SE daylight
26 Oct - 15:34:46 10° W 15:47:55 24° SW 15:57:54 10° S daylight
27 Oct - 05:27:25 10° SSW 05:37:31 39° SE 05:53:06 10° E visible
27 Oct - 07:39:05 10° WSW 07:53:05 75° SSE 08:13:25 10° E daylight
27 Oct - 09:54:00 10° W 10:11:55 87° S 10:32:06 10° E daylight
27 Oct - 12:11:03 10° W 12:31:03 70° SSW 12:48:13 10° SE daylight
27 Oct - 14:30:39 10° W 14:47:26 36° SW 15:00:08 10° SSE daylight
28 Oct - 04:29:39 10° S 04:37:37 26° SE 04:49:15 10° E visible
28 Oct - 06:39:34 10° SW 06:51:37 65° SSE 07:10:38 10° ENE daylight
28 Oct - 08:53:20 10° W 09:09:20 86° S 09:30:07 10° E daylight
28 Oct - 11:09:24 10° W 11:28:41 78° SSW 11:47:35 10° ESE daylight
28 Oct - 13:27:36 10° WNW 13:46:22 48° SW 14:01:19 10° SSE daylight
28 Oct - 15:52:02 10° W 16:00:47 15° SW 16:08:13 10° SSW daylight
29 Oct - 03:33:32 10° SSE 03:38:12 14° SE 03:44:00 10° E visible
29 Oct - 05:40:36 10° SW 05:50:50 51° SSE 06:07:35 10° ENE visible
29 Oct - 07:53:09 10° WSW 08:07:09 83° SSE 08:27:38 10° E daylight
29 Oct - 10:08:16 10° W 10:26:07 84° S 10:46:17 10° ESE daylight
29 Oct - 12:25:18 10° WNW 12:44:43 59° SSW 13:01:42 10° SE daylight
29 Oct - 14:46:07 10° W 15:00:26 26° SW 15:11:59 10° S daylight
